Radiation Dose at Monitoring Post of Fukushima Daini Nuclear Power Station
Date,Time,MP-1(microSv/h),MP-2(microSv/h),MP-3(microSv/h),MP-4(microSv/h),MP-5(microSv/h),MP-6(microSv/h),MP-7(microSv/h),Wind Direction,Wind Velocity(m/s),Rain
2021/02/02,00:00,0.180,0.160,0.258,0.243,0.238,0.142,0.086,southwest,3.6,No
2021/02/02,00:10,0.178,0.160,0.256,0.243,0.238,0.141,0.085,south-southwest,4.1,No
2021/02/02,00:20,0.179,0.160,0.255,0.244,0.239,0.142,0.085,south-southwest,3.8,No
2021/02/02,00:30,0.179,0.161,0.256,0.242,0.239,0.142,0.086,south-southwest,3.0,No
2021/02/02,00:40,0.179,0.160,0.257,0.244,0.239,0.141,0.086,southwest,2.6,No
2021/02/02,00:50,0.179,0.161,0.255,0.244,0.240,0.142,0.086,southwest,3.3,No
2021/02/02,01:00,0.180,0.161,0.257,0.243,0.238,0.142,0.085,southwest,3.2,No
2021/02/02,01:10,0.179,0.160,0.256,0.243,0.239,0.142,0.086,south-southeast,1.9,No
2021/02/02,01:20,0.179,0.162,0.256,0.243,0.240,0.142,0.086,south-southeast,4.6,No
2021/02/02,01:30,0.179,0.160,0.256,0.243,0.238,0.141,0.086,south-southwest,4.0,No
2021/02/02,01:40,0.180,0.160,0.257,0.243,0.239,0.141,0.086,south-southwest,4.6,No
2021/02/02,01:50,0.179,0.161,0.255,0.244,0.239,0.141,0.086,south,5.8,No
2021/02/02,02:00,0.179,0.161,0.256,0.242,0.239,0.142,0.086,south,6.5,No
2021/02/02,02:10,0.179,0.162,0.256,0.243,0.239,0.141,0.085,south,7.9,No
2021/02/02,02:20,0.178,0.160,0.257,0.244,0.239,0.142,0.085,south,8.4,No
2021/02/02,02:30,0.179,0.161,0.256,0.243,0.237,0.141,0.086,south,8.1,No
2021/02/02,02:40,0.179,0.161,0.257,0.243,0.240,0.141,0.086,south,7.4,No
2021/02/02,02:50,0.179,0.160,0.257,0.243,0.239,0.142,0.085,south-southeast,7.5,No
2021/02/02,03:00,0.179,0.161,0.256,0.243,0.239,0.141,0.086,south-southeast,7.7,No
2021/02/02,03:10,0.180,0.160,0.257,0.243,0.240,0.141,0.086,south-southeast,7.0,No
2021/02/02,03:20,0.178,0.161,0.255,0.243,0.239,0.141,0.086,south-southeast,5.3,Yes
2021/02/02,03:30,0.177,0.160,0.256,0.244,0.239,0.142,0.086,south-southeast,5.1,Yes
2021/02/02,03:40,0.179,0.160,0.256,0.243,0.241,0.141,0.086,south-southeast,4.0,Yes
2021/02/02,03:50,0.179,0.161,0.258,0.244,0.241,0.142,0.087,south-southeast,2.6,Yes
2021/02/02,04:00,0.181,0.162,0.257,0.244,0.240,0.143,0.087,south-southwest,0.8,Yes
2021/02/02,04:10,0.180,0.162,0.257,0.244,0.240,0.143,0.087,west-northwest,2.4,Yes
2021/02/02,04:20,0.179,0.161,0.258,0.245,0.239,0.143,0.087,northwest,3.9,Yes
2021/02/02,04:30,0.180,0.162,0.258,0.244,0.241,0.143,0.087,west,5.1,Yes
2021/02/02,04:40,0.181,0.161,0.257,0.244,0.240,0.143,0.087,west-northwest,3.5,Yes
2021/02/02,04:50,0.180,0.161,0.257,0.244,0.240,0.143,0.087,west,2.8,Yes
2021/02/02,05:00,0.180,0.162,0.257,0.245,0.240,0.143,0.086,north-northwest,1.3,No
2021/02/02,05:10,0.180,0.162,0.256,0.243,0.240,0.142,0.087,west-northwest,5.7,Yes
2021/02/02,05:20,0.179,0.161,0.259,0.242,0.239,0.142,0.086,west-northwest,9.5,Yes
2021/02/02,05:30,0.179,0.162,0.257,0.245,0.240,0.142,0.087,west-northwest,11.2,Yes
2021/02/02,05:40,0.179,0.162,0.258,0.244,0.240,0.143,0.086,west,11.2,Yes
2021/02/02,05:50,0.180,0.162,0.257,0.245,0.241,0.143,0.087,west,14.0,Yes
2021/02/02,06:00,0.180,0.161,0.258,0.244,0.241,0.143,0.086,west-northwest,11.5,No
2021/02/02,06:10,0.179,0.161,0.257,0.244,0.240,0.143,0.087,west,15.1,No
2021/02/02,06:20,0.179,0.161,0.257,0.244,0.239,0.143,0.086,west,14.6,No
2021/02/02,06:30,0.180,0.162,0.257,0.243,0.240,0.142,0.087,west,15.6,No
2021/02/02,06:40,0.180,0.161,0.256,0.244,0.238,0.143,0.087,west,17.4,No
2021/02/02,06:50,0.180,0.162,0.258,0.243,0.240,0.142,0.087,west,14.8,No
2021/02/02,07:00,0.181,0.161,0.256,0.244,0.241,0.143,0.087,west,18.6,No
2021/02/02,07:10,0.179,0.161,0.257,0.244,0.238,0.143,0.086,west,17.4,Yes
2021/02/02,07:20,0.179,0.161,0.258,0.242,0.240,0.143,0.086,west,16.5,Yes
2021/02/02,07:30,0.180,0.161,0.258,0.244,0.240,0.143,0.086,west,17.8,No
2021/02/02,07:40,0.179,0.161,0.258,0.244,0.240,0.142,0.086,west,17.2,No
2021/02/02,07:50,0.179,0.162,0.258,0.244,0.240,0.143,0.087,west-northwest,15.1,Yes
2021/02/02,08:00,0.181,0.163,0.258,0.244,0.239,0.143,0.086,west,15.3,No
2021/02/02,08:10,0.180,0.161,0.258,0.244,0.239,0.143,0.086,west,19.7,No
2021/02/02,08:20,0.179,0.161,0.257,0.244,0.240,0.142,0.086,west,19.5,No
2021/02/02,08:30,0.180,0.162,0.258,0.245,0.240,0.142,0.086,west,16.2,No
2021/02/02,08:40,0.181,0.162,0.260,0.246,0.240,0.144,0.087,west,20.0,Yes
2021/02/02,08:50,0.181,0.161,0.259,0.244,0.239,0.144,0.086,west-northwest,16.2,No
2021/02/02,09:00,0.180,0.163,0.258,0.244,0.241,0.143,0.087,west-northwest,17.5,No
2021/02/02,09:10,0.179,0.162,0.257,0.245,0.241,0.142,0.086,west,15.1,No
2021/02/02,09:20,0.180,0.161,0.260,0.244,0.240,0.142,0.086,west,15.3,No
2021/02/02,09:30,0.180,0.163,0.258,0.243,0.239,0.142,0.086,west-northwest,16.0,No
2021/02/02,09:40,0.180,0.161,0.257,0.243,0.240,0.143,0.085,west,16.0,No
2021/02/02,09:50,0.179,0.162,0.259,0.243,0.239,0.143,0.086,west,17.0,No
2021/02/02,10:00,0.179,0.161,0.256,0.245,0.240,0.142,0.086,west,16.4,No
2021/02/02,10:10,0.180,0.162,0.255,0.244,0.239,0.141,0.086,west,19.1,No
2021/02/02,10:20,0.179,0.162,0.257,0.243,0.239,0.142,0.085,west,15.8,No
2021/02/02,10:30,0.180,0.160,0.255,0.242,0.241,0.142,0.086,west,15.3,No
2021/02/02,10:40,0.180,0.161,0.257,0.244,0.239,0.143,0.085,west,14.7,No
2021/02/02,10:50,0.180,0.160,0.253,0.244,0.240,0.142,0.086,west-northwest,14.8,No
2021/02/02,11:00,0.180,0.161,0.254,0.242,0.238,0.142,0.086,west,15.8,No
2021/02/02,11:10,0.180,0.162,0.254,0.243,0.240,0.143,0.085,west,15.5,No
2021/02/02,11:20,0.179,0.161,0.255,0.244,0.240,0.141,0.085,west,17.4,No
2021/02/02,11:30,0.179,0.160,0.254,0.243,0.240,0.142,0.086,west,18.0,No
2021/02/02,11:40,0.180,0.161,0.255,0.244,0.238,0.141,0.086,west,16.1,No
2021/02/02,11:50,0.178,0.160,0.253,0.242,0.239,0.142,0.087,west,16.8,No
2021/02/02,12:00,0.178,0.160,0.257,0.244,0.240,0.142,0.086,west-northwest,14.3,No
2021/02/02,12:10,0.178,0.160,0.257,0.241,0.241,0.143,0.086,west-northwest,12.2,No
2021/02/02,12:20,0.180,0.161,0.258,0.244,0.239,0.141,0.086,west-northwest,11.7,No
2021/02/02,12:30,0.179,0.161,0.256,0.241,0.241,0.142,0.085,west-northwest,14.4,No
2021/02/02,12:40,0.180,0.161,0.259,0.244,0.238,0.142,0.086,west-northwest,11.8,No
2021/02/02,12:50,0.180,0.161,0.256,0.243,0.242,0.142,0.086,northwest,11.4,No
2021/02/02,13:00,0.179,0.161,0.257,0.245,0.238,0.143,0.086,west-northwest,10.1,No
2021/02/02,13:10,0.179,0.162,0.258,0.243,0.240,0.144,0.087,west-northwest,10.3,No
2021/02/02,13:20,0.180,0.161,0.257,0.245,0.239,0.142,0.086,west-northwest,11.2,No
2021/02/02,13:30,0.180,0.161,0.258,0.243,0.242,0.143,0.086,west-northwest,7.9,No
2021/02/02,13:40,0.180,0.162,0.257,0.245,0.239,0.142,0.086,west-northwest,8.4,No
2021/02/02,13:50,0.180,0.162,0.256,0.244,0.240,0.143,0.086,west-northwest,11.7,No
2021/02/02,14:00,0.180,0.161,0.255,0.245,0.238,0.143,0.086,west-northwest,12.4,No
2021/02/02,14:10,0.180,0.161,0.255,0.243,0.240,0.143,0.086,west-northwest,13.7,No
2021/02/02,14:20,0.181,0.162,0.258,0.245,0.239,0.142,0.087,west-northwest,11.4,No
2021/02/02,14:30,0.181,0.161,0.260,0.244,0.241,0.142,0.087,west-northwest,13.7,No
2021/02/02,14:40,0.181,0.161,0.259,0.244,0.240,0.143,0.087,west-northwest,14.2,No
2021/02/02,14:50,0.181,0.161,0.259,0.245,0.242,0.142,0.086,west-northwest,16.7,No
2021/02/02,15:00,0.181,0.162,0.259,0.245,0.241,0.143,0.086,west-northwest,10.9,No
2021/02/02,15:10,0.181,0.162,0.260,0.245,0.240,0.142,0.087,northwest,16.5,No
2021/02/02,15:20,0.180,0.162,0.258,0.244,0.241,0.143,0.086,west-northwest,13.4,No
2021/02/02,15:30,0.179,0.162,0.259,0.245,0.241,0.143,0.086,west-northwest,16.2,No
2021/02/02,15:40,0.180,0.161,0.258,0.246,0.241,0.143,0.086,west-northwest,16.1,No
2021/02/02,15:50,0.180,0.163,0.258,0.246,0.241,0.143,0.087,west-northwest,18.4,No
2021/02/02,16:00,0.181,0.163,0.259,0.246,0.241,0.141,0.086,west-northwest,14.4,No
2021/02/02,16:10,0.181,0.162,0.259,0.246,0.240,0.143,0.086,west-northwest,16.4,No
2021/02/02,16:20,0.180,0.162,0.261,0.244,0.240,0.143,0.087,west-northwest,15.5,No
2021/02/02,16:30,0.181,0.162,0.260,0.245,0.241,0.144,0.087,west-northwest,15.5,No
2021/02/02,16:40,0.181,0.163,0.260,0.245,0.240,0.143,0.086,west-northwest,15.7,No
2021/02/02,16:50,0.180,0.161,0.260,0.243,0.239,0.143,0.087,west,17.1,No
2021/02/02,17:00,0.181,0.162,0.260,0.246,0.241,0.144,0.087,west,17.5,No
2021/02/02,17:10,0.181,0.162,0.259,0.246,0.240,0.144,0.086,west-northwest,17.9,No
2021/02/02,17:20,0.181,0.161,0.260,0.246,0.241,0.142,0.086,west-northwest,19.8,No
2021/02/02,17:30,0.181,0.162,0.259,0.245,0.240,0.143,0.087,west,19.9,No
2021/02/02,17:40,0.181,0.162,0.258,0.245,0.240,0.144,0.086,west-northwest,15.0,No
2021/02/02,17:50,0.180,0.163,0.258,0.246,0.241,0.143,0.087,west-northwest,14.4,No
2021/02/02,18:00,0.181,0.163,0.259,0.245,0.240,0.142,0.085,west-northwest,16.6,No
2021/02/02,18:10,0.181,0.163,0.260,0.246,0.242,0.143,0.087,west-northwest,13.6,No
2021/02/02,18:20,0.180,0.161,0.260,0.244,0.240,0.144,0.086,west-northwest,16.0,No
2021/02/02,18:30,0.181,0.162,0.260,0.246,0.241,0.143,0.086,west-northwest,16.6,No
2021/02/02,18:40,0.181,0.162,0.261,0.245,0.241,0.143,0.086,west-northwest,14.2,No
2021/02/02,18:50,0.180,0.162,0.261,0.245,0.240,0.142,0.086,northwest,14.8,No
2021/02/02,19:00,0.180,0.162,0.260,0.244,0.240,0.143,0.086,west-northwest,15.9,No
2021/02/02,19:10,0.181,0.163,0.261,0.245,0.241,0.142,0.087,west-northwest,13.3,No
2021/02/02,19:20,0.180,0.162,0.261,0.246,0.240,0.143,0.087,west-northwest,15.7,No
2021/02/02,19:30,0.181,0.164,0.261,0.245,0.241,0.143,0.087,west-northwest,11.4,No
2021/02/02,19:40,0.181,0.162,0.262,0.245,0.239,0.142,0.086,northwest,10.9,No
2021/02/02,19:50,0.181,0.162,0.261,0.245,0.240,0.142,0.086,west-northwest,8.9,No
2021/02/02,20:00,0.180,0.163,0.260,0.246,0.241,0.142,0.086,northwest,10.0,No
2021/02/02,20:10,0.180,0.161,0.261,0.245,0.240,0.143,0.087,northwest,12.3,No
2021/02/02,20:20,0.181,0.162,0.259,0.246,0.240,0.143,0.087,north-northwest,8.1,No
2021/02/02,20:30,0.180,0.162,0.260,0.245,0.239,0.142,0.086,north-northwest,5.9,No
2021/02/02,20:40,0.181,0.163,0.260,0.245,0.241,0.143,0.087,north-northeast,8.5,No
2021/02/02,20:50,0.181,0.161,0.261,0.245,0.240,0.142,0.086,north,9.2,No
2021/02/02,21:00,0.181,0.162,0.260,0.245,0.240,0.143,0.086,north-northwest,7.3,No
2021/02/02,21:10,0.181,0.162,0.260,0.246,0.240,0.143,0.085,north,7.0,No
2021/02/02,21:20,0.180,0.162,0.259,0.246,0.241,0.143,0.086,north,5.8,No
2021/02/02,21:30,0.180,0.162,0.259,0.246,0.240,0.142,0.086,north,5.8,No
2021/02/02,21:40,0.181,0.162,0.260,0.245,0.240,0.142,0.086,north,7.0,No
2021/02/02,21:50,0.180,0.161,0.259,0.245,0.240,0.143,0.087,north,5.5,No
2021/02/02,22:00,0.181,0.161,0.258,0.245,0.240,0.142,0.087,north,4.3,No
2021/02/02,22:10,0.180,0.162,0.259,0.245,0.241,0.143,0.086,north,4.9,No
2021/02/02,22:20,0.180,0.163,0.258,0.245,0.240,0.142,0.087,north-northwest,5.7,No
2021/02/02,22:30,0.180,0.163,0.260,0.244,0.239,0.142,0.086,north-northwest,4.7,No
2021/02/02,22:40,0.180,0.162,0.258,0.246,0.239,0.142,0.087,north-northwest,6.5,No
2021/02/02,22:50,0.180,0.161,0.258,0.245,0.240,0.142,0.086,northwest,9.2,No
2021/02/02,23:00,0.181,0.161,0.259,0.245,0.239,0.143,0.086,northwest,9.5,No
2021/02/02,23:10,0.181,0.162,0.258,0.244,0.240,0.142,0.085,northwest,4.2,No
2021/02/02,23:20,0.179,0.162,0.259,0.244,0.239,0.143,0.086,north-northwest,1.8,No
2021/02/02,23:30,0.181,0.162,0.260,0.244,0.239,0.142,0.086,north,2.5,No
2021/02/02,23:40,0.180,0.161,0.259,0.245,0.239,0.142,0.086,northeast,6.2,No
2021/02/02,23:50,0.180,0.161,0.258,0.245,0.240,0.143,0.086,north-northeast,5.5,No
